[[{"header":{"parameterUnit":"m.s-1","parameterCategory":1,"la1":30.2991,"la2":30.254,"lo1":-89.0895,"lo2":-89.0444,"dy":0.0017,"dx":0.0017,"nx":28,"ny":28,"refTime":"2023-10-27T03:00:00:Z","depth":0,"parameterNumber":2,"parameterNumberName":"U-component_of_WINDS"},"data":[0,0,0,0,0,0,0,0,0,0,0,0,0,0,0,0,0,0,0,0,0,0,0,0,0,0,0,0,0,0,0,0,0,0,0,0,0,0,0,0,0,0,0,0,0,0,0,0,0,0,0,0,0,0,0,0,0,0,-3.0305,-3.0306,0,-3.0317,-3.0317,-3.0317,-3.0249,-3.0247,-3.0245,-3.0243,-3.0256,-3.0258,-3.026,0,0,0,0,0,0,0,0,0,0,0,0,0,-3.0229,-3.0231,-3.0305,-3.0306,-3.0306,-3.0317,-3.0317,-3.0317,-3.0249,-3.0247,-3.0245,-3.0242,-3.0255,-3.0258,-3.026,0,0,0,0,0,0,0,0,0,0,0,0,0,-3.0254,-3.0232,-3.0305,-3.0273,-3.027,-3.0317,-3.0317,-3.0317,-3.025,-3.0247,-3.0244,-3.0241,-3.0254,-3.0257,-3.0261,-3.0338,0,0,-3.027,-3.0272,0,0,0,0,0,0,0,0,-3.0252,-3.0257,-3.0278,-3.0276,-3.0273,-3.0278,-3.0294,-3.0324,-3.025,-3.0258,-3.0243,-3.024,-3.0266,-3.0268,-3.0276,-3.0339,-3.034,-3.0271,-3.0273,-3.0274,-3.0275,0,0,0,0,0,0,0,-3.0251,-3.0256,-3.031,-3.0278,-3.0275,-3.026,-3.026,-3.03,-3.0278,-3.0257,-3.0252,-3.0254,-3.0264,-3.0273,-3.0276,-3.034,-3.0271,-3.0273,-3.0275,-3.0277,-3.0471,-3.0474,0,0,0,0,0,0,-3.0253,-3.0255,-3.0309,-3.031,-3.0255,-3.0263,-3.0264,-3.0279,-3.0277,-3.0274,-3.0257,-3.0251,-3.0269,-3.0272,-3.0276,-3.0369,-3.0274,-3.0277,-3.0279,-3.0468,-3.0472,-3.0475,0,0,0,0,0,0,-3.0252,-3.0259,-3.0309,-3.0281,-3.0286,-3.0268,-3.0286,-3.0281,-3.0291,-3.0277,-3.0273,-3.027,-3.0267,-3.0272,-3.0324,-3.0369,-3.0278,-3.0281,-3.0464,-3.0469,-3.0473,-3.0555,0,0,0,0,0,0,-3.025,-3.0259,-3.0287,-3.0282,-3.0288,-3.0356,-3.0289,-3.0283,-3.0296,-3.0289,-3.0289,-3.0286,-3.0265,-3.032,-3.0327,-3.0372,-3.0284,-3.046,-3.0466,-3.0472,-3.0548,-3.0562,-3.0574,0,0,0,0,0,-3.0247,-3.0309,-3.0288,-3.0295,-3.0323,-3.0358,-3.0362,-3.0336,-3.03,-3.0329,-3.0321,-3.0286,-3.0363,-3.0326,-3.0334,-3.038,-3.0457,-3.0464,-3.0471,-3.0542,-3.0559,-3.0574,0,0,0,0,0,0,-3.0318,-3.0307,-3.0285,-3.0346,-3.0354,-3.0347,-3.0382,-3.0354,-3.0373,-3.0365,-3.0333,-3.0334,-3.0393,-3.0391,-3.035,-3.0457,-3.0404,-3.0413,-3.0455,-3.0471,-3.0484,-3.0483,-3.0287,0,0,0,0,0,-3.0341,-3.037,-3.0359,-3.0415,-3.042,-3.0401,-3.0415,-3.0395,-3.0402,-3.0405,-3.04,-3.0409,-3.0435,-3.0453,-3.0476,-3.0548,-3.0549,-3.0584,-3.0597,-3.0607,-3.0616,-3.0657,-3.0673,-3.0499,-3.0499,-3.0499,0,0,-3.0388,-3.0386,-3.0406,-3.0429,-3.0432,-3.0465,-3.0404,-3.0439,-3.0463,-3.041,-3.046,-3.0458,-3.0465,-3.0529,-3.0556,-3.0529,-3.0664,-3.0617,-3.0625,-3.0628,-3.0666,-3.0683,-3.0697,-3.0504,-3.0503,-3.0502,0,0,-3.049,-3.0491,-3.0538,-3.0544,-3.0551,-3.0538,-3.055,-3.0548,-3.0545,-3.0594,-3.0556,-3.0585,-3.063,-3.0638,-3.0648,-3.0759,-3.0728,-3.0768,-3.0834,-3.0875,-3.0889,-3.0901,-3.0942,-3.0957,-3.0776,-3.0776,-3.0776,0,-3.0548,-3.0594,-3.0566,-3.0606,-3.0618,-3.0573,-3.0622,-3.0629,-3.0643,-3.0654,-3.0623,-3.0682,-3.0684,-3.075,-3.0777,-3.0786,-3.08,-3.0767,-3.0889,-3.09,-3.0911,-3.095,-3.0966,-3.0781,-3.078,-3.078,-3.078,0,-3.0666,-3.0699,-3.0737,-3.0752,-3.0769,-3.0813,-3.0794,-3.0815,-3.0795,-3.0787,-3.084,-3.0841,-3.0865,-3.088,-3.086,-3.0944,-3.0928,-3.0894,-3.084,-3.0933,-3.097,-3.0984,-3.0788,-3.0786,-3.0785,-3.0784,0,0,-3.081,-3.0813,-3.0827,-3.0835,-3.0841,-3.0867,-3.0911,-3.0935,-3.0954,-3.0967,-3.1004,-3.1045,-3.1015,-3.1027,-3.1008,-3.1044,-3.1134,-3.1006,-3.1005,-3.1031,-3.123,-3.1256,-3.1274,-3.1114,-3.1117,-3.1119,-3.123,0,-3.0911,-3.0985,-3.0963,-3.1038,-3.107,-3.1029,-3.1068,-3.1077,-3.1072,-3.1099,-3.1093,-3.1124,-3.108,-3.1088,-3.1121,-3.1116,-3.1174,-3.1108,-3.115,-3.1152,-3.115,-3.1292,-3.1319,-3.1423,-3.1244,-3.1246,-3.1248,0,-3.1038,-3.1057,-3.1135,-3.1139,-3.1152,-3.1186,-3.1209,-3.1235,-3.1246,-3.1239,-3.1255,-3.123,-3.1275,-3.1222,-3.1286,-3.1241,-3.1258,-3.1259,-3.1262,-3.1265,-3.1206,-3.13,-3.1455,-3.1472,-3.127,-3.1268,-3.1266,0,-3.1137,-3.1182,-3.1236,-3.1244,-3.1249,-3.1275,-3.1279,-3.1287,-3.1304,-3.1324,-3.1336,-3.1361,-3.1375,-3.1396,-3.138,-3.1342,-3.1447,-3.1392,-3.1445,-3.1445,-3.1468,-3.1466,-3.1629,-3.1478,-3.1478,-3.1477,-3.1477,0,-3.1253,-3.1302,-3.1281,-3.1313,-3.1369,-3.1346,-3.1402,-3.1401,-3.141,-3.1443,-3.141,-3.1442,-3.1419,-3.145,-3.1438,-3.1494,-3.15,-3.1498,-3.1494,-3.1501,-3.1501,-3.1511,-3.1504,-3.1482,-3.1481,-3.148,-3.1479,0,-3.1372,-3.1359,-3.1415,-3.1417,-3.1419,-3.146,-3.1463,-3.1494,-3.1488,-3.1531,-3.154,-3.153,-3.1565,-3.1552,-3.1589,-3.1581,-3.1653,-3.1639,-3.1649,-3.1646,-3.17,-3.1696,-3.1875,-3.1898,-3.1732,-3.1733,-3.1735,0,-3.1446,-3.1484,-3.1491,-3.1511,-3.1518,-3.155,-3.1568,-3.1548,-3.1568,-3.1586,-3.1616,-3.1649,-3.1674,-3.1733,-3.173,-3.1759,-3.1747,-3.1808,-3.1751,-3.1758,-3.1749,-3.1748,-3.1752,-3.1819,-3.1821,-3.1822,-3.1823,0,-3.158,-3.1573,-3.16,-3.1626,-3.1649,-3.1668,-3.1685,-3.1704,-3.1685,-3.171,-3.1746,-3.1766,-3.1805,-3.1839,-3.1866,-3.1872,-3.1846,-3.1842,-3.1856,-3.1863,-3.1868,-3.1868,-3.1681,-3.1837,-3.1836,-3.1835,-3.1834,-3.1834,-3.168,-3.1712,-3.1724,-3.1756,-3.1767,-3.1784,-3.1815,-3.1814,-3.1843,-3.1874,-3.1861,-3.1903,-3.1917,-3.1951,-3.1961,-3.1995,-3.1972,-3.1991,-3.1997,-3.2002,-3.201,-3.1863,-3.2,-3.2,-3.1999,-3.1999,-3.1998,0,-3.1813,-3.1819,-3.1849,-3.1874,-3.1901,-3.1875,-3.1893,-3.1917,-3.1955,-3.197,-3.1996,-3.204,-3.2073,-3.2075,-3.2107,-3.2134,-3.2123,-3.2143,-3.2141,-3.2144,-3.2028,-3.2013,-3.2152,-3.2152,-3.2152,-3.2152,-3.2152,-3.2152,-3.1885,-3.194,-3.1935,-3.1997,-3.2003,-3.2044,-3.2057,-3.2075,-3.2087,-3.2137,-3.2165,-3.2166,-3.2176,-3.221,-3.224,-3.224,-3.2254,-3.2279,-3.2275,-3.2166,-3.2151,-3.2137,-3.2123,-3.2282,-3.2282,-3.2387,-3.2388,-3.2389]},{"header":{"parameterUnit":"m.s-1","parameterCategory":1,"la1":30.2991,"la2":30.254,"lo1":-89.0895,"lo2":-89.0444,"dy":0.0017,"dx":0.0017,"nx":28,"ny":28,"refTime":"2023-10-27T03:00:00:Z","depth":0,"parameterNumber":3,"parameterNumberName":"V-component_of_WINDS"},"data":[0,0,0,0,0,0,0,0,0,0,0,0,0,0,0,0,0,0,0,0,0,0,0,0,0,0,0,0,0,0,0,0,0,0,0,0,0,0,0,0,0,0,0,0,0,0,0,0,0,0,0,0,0,0,0,0,0,0,0.8678,0.8677,0,0.8622,0.8622,0.8621,0.8649,0.865,0.8652,0.8653,0.8596,0.8593,0.8591,0,0,0,0,0,0,0,0,0,0,0,0,0,0.8809,0.8806,0.8678,0.8677,0.8676,0.8622,0.8622,0.8621,0.8648,0.865,0.8652,0.8654,0.8597,0.8594,0.859,0,0,0,0,0,0,0,0,0,0,0,0,0,0.8752,0.8805,0.8678,0.8684,0.8684,0.8622,0.8621,0.8621,0.8648,0.865,0.8652,0.8655,0.8598,0.8594,0.859,0.852,0,0,0.8577,0.8575,0,0,0,0,0,0,0,0,0.8756,0.8748,0.8684,0.8683,0.8683,0.8645,0.8647,0.8587,0.8648,0.8662,0.8653,0.8656,0.8611,0.8605,0.859,0.8517,0.8515,0.8576,0.8574,0.8572,0.8571,0,0,0,0,0,0,0,0.8759,0.875,0.8656,0.8683,0.8682,0.8689,0.8684,0.8636,0.8625,0.8661,0.8662,0.8655,0.8611,0.8594,0.8589,0.8514,0.8576,0.8573,0.857,0.8568,0.8381,0.8379,0,0,0,0,0,0,0.8763,0.8753,0.8658,0.8654,0.8725,0.8685,0.8679,0.8655,0.8625,0.8623,0.8654,0.8657,0.8601,0.8594,0.8587,0.8503,0.8572,0.8568,0.8565,0.8383,0.838,0.8378,0,0,0,0,0,0,0.8766,0.8754,0.866,0.8704,0.8693,0.8681,0.8653,0.8653,0.8636,0.862,0.8618,0.8639,0.8602,0.8593,0.8536,0.8501,0.8566,0.8562,0.8386,0.8382,0.8379,0.8333,0,0,0,0,0,0,0.8769,0.8755,0.8728,0.8703,0.869,0.8609,0.8651,0.865,0.8628,0.8632,0.8605,0.8603,0.8603,0.8543,0.8532,0.8496,0.8559,0.8389,0.8384,0.838,0.8338,0.8329,0.8321,0,0,0,0,0,0.8774,0.8717,0.8726,0.8715,0.8656,0.8607,0.86,0.8601,0.8625,0.8598,0.8588,0.8604,0.8507,0.8537,0.8525,0.8487,0.8391,0.8386,0.8381,0.8342,0.833,0.8321,0,0,0,0,0,0,0.8737,0.8714,0.8724,0.8657,0.8634,0.8612,0.8577,0.8589,0.8558,0.8563,0.8566,0.856,0.85,0.8489,0.8522,0.8418,0.8453,0.8445,0.8428,0.8417,0.8408,0.8412,0.8555,0,0,0,0,0,0.8722,0.8684,0.8666,0.8609,0.8597,0.8589,0.8568,0.8571,0.8547,0.8537,0.8523,0.8499,0.8464,0.844,0.8406,0.8337,0.8332,0.8306,0.8297,0.829,0.8283,0.8246,0.8234,0.836,0.836,0.836,0,0,0.8688,0.8671,0.8647,0.8601,0.8583,0.8544,0.858,0.8538,0.8509,0.8531,0.8476,0.8465,0.8439,0.8375,0.8347,0.8364,0.8247,0.8284,0.8278,0.8274,0.8239,0.8227,0.8216,0.8356,0.8357,0.8358,0,0,0.8608,0.8591,0.8542,0.8524,0.8497,0.8492,0.8481,0.8457,0.845,0.8396,0.8412,0.8378,0.8316,0.8297,0.8279,0.8193,0.8206,0.8182,0.8136,0.81,0.809,0.8081,0.805,0.8039,0.8175,0.8175,0.8175,0,0.857,0.8511,0.8515,0.8471,0.845,0.8469,0.842,0.8402,0.8365,0.8351,0.837,0.8294,0.8278,0.821,0.8189,0.8175,0.8161,0.8184,0.8091,0.8082,0.8074,0.8044,0.8033,0.8172,0.8173,0.8173,0.8173,0,0.8466,0.8425,0.8389,0.8353,0.8329,0.8282,0.8279,0.8254,0.826,0.8253,0.8198,0.8179,0.8142,0.8127,0.8132,0.806,0.8071,0.8091,0.8126,0.8059,0.8031,0.802,0.8168,0.8169,0.817,0.8171,0,0,0.8358,0.8326,0.8313,0.8297,0.8269,0.8238,0.8193,0.8157,0.8135,0.811,0.8072,0.802,0.8038,0.8018,0.8022,0.799,0.7922,0.8014,0.8013,0.7997,0.7842,0.7826,0.7812,0.7932,0.793,0.7928,0.7844,0,0.8275,0.8195,0.8198,0.8123,0.8086,0.8104,0.8065,0.8044,0.8037,0.8005,0.7998,0.7961,0.7989,0.7977,0.7946,0.7937,0.7891,0.7944,0.7896,0.7894,0.79,0.7798,0.7781,0.7702,0.7833,0.7831,0.783,0,0.8166,0.8138,0.8059,0.8038,0.8022,0.7987,0.7954,0.7923,0.79,0.7898,0.7876,0.7885,0.7839,0.7877,0.7814,0.785,0.7831,0.7824,0.7821,0.7815,0.7857,0.7788,0.7677,0.7664,0.7812,0.7814,0.7815,0,0.8095,0.8037,0.7982,0.7968,0.7942,0.7917,0.7905,0.7884,0.7862,0.7835,0.7821,0.7788,0.7769,0.7744,0.7744,0.7772,0.7681,0.7718,0.7677,0.7677,0.7655,0.7656,0.7538,0.7646,0.7646,0.7646,0.7646,0,0.8,0.7951,0.795,0.7916,0.7862,0.7867,0.7813,0.7804,0.7786,0.7751,0.7766,0.7733,0.7736,0.7702,0.7703,0.7651,0.7643,0.7639,0.7639,0.7637,0.7637,0.7623,0.7628,0.7643,0.7644,0.7644,0.7645,0,0.791,0.7907,0.7849,0.783,0.7824,0.7785,0.7768,0.7736,0.7732,0.7688,0.7678,0.767,0.7632,0.7631,0.7587,0.7587,0.7523,0.7531,0.7531,0.7532,0.749,0.7494,0.7357,0.734,0.746,0.7459,0.7458,0,0.7849,0.7812,0.7789,0.7767,0.7753,0.7717,0.7696,0.7699,0.7676,0.7648,0.7619,0.7583,0.7553,0.7492,0.7483,0.745,0.7456,0.741,0.7451,0.7449,0.7454,0.7455,0.7452,0.7402,0.74,0.7399,0.7398,0,0.7742,0.7742,0.771,0.7678,0.7651,0.7626,0.7602,0.7584,0.7584,0.7558,0.7519,0.7496,0.7452,0.7415,0.7383,0.7372,0.7385,0.7386,0.7375,0.7371,0.7372,0.737,0.7508,0.7389,0.739,0.739,0.7391,0.7391,0.7664,0.7632,0.7611,0.7575,0.7557,0.7535,0.7505,0.7497,0.7464,0.7428,0.7433,0.7389,0.7369,0.7327,0.7313,0.7279,0.7295,0.7278,0.7274,0.727,0.7265,0.7379,0.7274,0.7274,0.7274,0.7274,0.7275,0,0.7556,0.7544,0.7511,0.7477,0.7449,0.7465,0.744,0.7415,0.7377,0.7357,0.7328,0.7284,0.7249,0.7237,0.7204,0.7179,0.7184,0.717,0.7171,0.7168,0.7253,0.7266,0.7166,0.7166,0.7166,0.7166,0.7166,0.7166,0.7497,0.7444,0.7442,0.738,0.7368,0.7326,0.731,0.729,0.7274,0.7224,0.7195,0.7188,0.7171,0.7136,0.7105,0.7103,0.7089,0.7072,0.7072,0.7151,0.7162,0.7172,0.7184,0.7069,0.7069,0.699,0.6989,0.6989]}]]